, AK

(GMT )
Valdez Airport

Weather History for PAVD - March, 2014

Change the Weather History Date:

Sunday, March 2, 2014

  Actual Average Record
Temperature  
Mean Temperature 26 °F -  
Max Temperature 35 °F 31 °F 44 °F (1991)
Min Temperature 17 °F 20 °F 5 °F (2006)
Degree Days  
Heating Degree Days 39    
Moisture  
Dew Point 20 °F    
Average Humidity 79    
Maximum Humidity 100    
Minimum Humidity 60    
Precipitation  
Precipitation 0.00 in - - ()
Sea Level Pressure  
Sea Level Pressure 29.87 in    
Wind  
Wind Speed 1 mph (ESE)    
Max Wind Speed 8 mph    
Max Gust Speed -    
Visibility 10 miles    
Events      
Averages and records for this station are not official NWS values.
T = Trace of Precipitation, MM = Missing Value Source: NWS Daily Summary

Daily Weather History Graph

Daily Weather History Graph

Search for Another Location

Airport or City:

Astronomy

Mar. 02, 2014 Rise Set
Actual Time 7:41 AM AKST 6:13 PM AKST
Civil Twilight 6:58 AM AKST 6:56 PM AKST
Nautical Twilight 6:08 AM AKST 7:46 PM AKST
Astronomical Twilight 5:17 AM AKST 8:38 PM AKST
Moon 7:43 AM AKST (3/2) 9:05 PM AKST (3/2)
Length of Visible Light 11h 58m
Length of Day
10h 31m
Waxing Crescent, 3% of the Moon is Illuminated
Mar 2
Waxing Crescent
Mar 8
First Quarter
Mar 16
Full
Mar 23
Last Quarter
Mar 30
New

Hourly Weather History & Observations

Time (AKST) Temp. Windchill Dew Point Humidity Pressure Visibility Wind Dir Wind Speed Gust Speed Precip Events Conditions
12:16 AM 24.8 °F - 21.2 °F 86% 29.93 in 10.0 mi Calm Calm - N/A   Clear
12:36 AM 23.0 °F - 19.4 °F 86% 29.93 in 10.0 mi Calm Calm - N/A   Clear
12:56 AM 21.2 °F - 15.8 °F 80% 29.93 in 10.0 mi Calm Calm - N/A   Clear
1:16 AM 21.2 °F - 21.2 °F 100% 29.93 in 10.0 mi Calm Calm - N/A   Clear
1:36 AM 21.2 °F 14.9 °F 17.6 °F 86% 29.93 in 10.0 mi East 4.6 mph - N/A   Clear
1:56 AM 21.2 °F - 19.4 °F 93% 29.92 in 10.0 mi Calm Calm - N/A   Clear
2:16 AM 19.4 °F - 17.6 °F 93% 29.92 in 10.0 mi Calm Calm - N/A   Clear
2:36 AM 19.4 °F - 17.6 °F 93% 29.91 in 10.0 mi Calm Calm - N/A   Clear
2:56 AM 19.4 °F 14.3 °F 19.4 °F 100% 29.90 in 10.0 mi ENE 3.5 mph - N/A   Clear
3:16 AM 21.2 °F - 15.8 °F 80% 29.90 in 10.0 mi Calm Calm - N/A   Clear
3:36 AM 21.2 °F - 14.0 °F 74% 29.89 in 10.0 mi Calm Calm - N/A   Clear
3:56 AM 21.2 °F - 17.6 °F 86% 29.88 in 10.0 mi Calm Calm - N/A   Clear
4:16 AM 23.0 °F - 17.6 °F 80% 29.88 in 10.0 mi Calm Calm - N/A   Clear
4:36 AM 23.0 °F - 15.8 °F 74% 29.88 in 10.0 mi Calm Calm - N/A   Clear
4:56 AM 19.4 °F 12.8 °F 15.8 °F 86% 29.88 in 10.0 mi ENE 4.6 mph - N/A   Clear
5:16 AM 21.2 °F - 19.4 °F 93% 29.87 in 10.0 mi Calm Calm - N/A   Clear
5:36 AM 17.6 °F 12.3 °F 17.6 °F 100% 29.87 in 10.0 mi East 3.5 mph - N/A   Clear
5:56 AM 19.4 °F - 19.4 °F 100% 29.87 in 10.0 mi Calm Calm - N/A   Clear
6:16 AM 21.2 °F - 19.4 °F 93% 29.86 in 10.0 mi Calm Calm - N/A   Clear
6:36 AM 19.4 °F - 15.8 °F 86% 29.86 in 10.0 mi Calm Calm - N/A   Clear
6:56 AM 19.4 °F 12.8 °F 17.6 °F 93% 29.86 in 10.0 mi East 4.6 mph - N/A   Clear
7:16 AM 19.4 °F 12.8 °F 15.8 °F 86% 29.86 in 10.0 mi East 4.6 mph - N/A   Clear
7:36 AM 17.6 °F 10.7 °F 14.0 °F 86% 29.86 in 10.0 mi East 4.6 mph - N/A   Clear
7:56 AM 17.6 °F 10.7 °F 12.2 °F 79% 29.85 in 10.0 mi East 4.6 mph - N/A   Clear
8:16 AM 19.4 °F - 17.6 °F 93% 29.85 in 10.0 mi Calm Calm - N/A   Clear
8:36 AM 21.2 °F 16.4 °F 15.8 °F 80% 29.85 in 10.0 mi ESE 3.5 mph - N/A   Clear
8:56 AM 23.0 °F - 19.4 °F 86% 29.85 in 10.0 mi Calm Calm - N/A   Clear
9:16 AM 21.2 °F 16.4 °F 17.6 °F 86% 29.85 in 10.0 mi NNE 3.5 mph - N/A   Clear
9:36 AM 24.8 °F - 17.6 °F 74% 29.85 in 10.0 mi Calm Calm - N/A   Clear
9:56 AM 26.6 °F - 21.2 °F 80% 29.85 in 10.0 mi Calm Calm - N/A   Partly Cloudy
10:16 AM 26.6 °F - 21.2 °F 80% 29.85 in 10.0 mi Calm Calm - N/A   Partly Cloudy
10:36 AM 28.4 °F - 21.2 °F 74% 29.85 in 10.0 mi Calm Calm - N/A   Partly Cloudy
10:56 AM 30.2 °F - 23.0 °F 75% 29.86 in 10.0 mi Calm Calm - N/A   Partly Cloudy
11:16 AM 30.2 °F - 23.0 °F 75% 29.86 in 10.0 mi Calm Calm - N/A   Partly Cloudy
11:36 AM 30.2 °F - 21.2 °F 69% 29.86 in 10.0 mi Calm Calm - N/A   Partly Cloudy
11:56 AM 32.0 °F - 23.0 °F 69% 29.86 in 10.0 mi Calm Calm - N/A   Partly Cloudy
12:16 PM 33.8 °F - 24.8 °F 70% 29.86 in 10.0 mi Calm Calm - N/A   Partly Cloudy
12:36 PM 33.8 °F - 24.8 °F 70% 29.86 in 10.0 mi Calm Calm - N/A   Partly Cloudy
12:56 PM 35.6 °F - 26.6 °F 70% 29.86 in 10.0 mi Calm Calm - N/A   Partly Cloudy
1:16 PM 35.6 °F - 26.6 °F 70% 29.86 in 10.0 mi Calm Calm - N/A   Partly Cloudy
1:36 PM 35.6 °F 31.7 °F 28.4 °F 75% 29.86 in 10.0 mi SW 4.6 mph - N/A   Partly Cloudy
1:56 PM 35.6 °F 29.9 °F 28.4 °F 75% 29.87 in 10.0 mi WSW 6.9 mph - N/A   Partly Cloudy
2:16 PM 35.6 °F 29.9 °F 26.6 °F 70% 29.87 in 10.0 mi WSW 6.9 mph - N/A   Partly Cloudy
2:36 PM 35.6 °F 29.9 °F 28.4 °F 75% 29.87 in 10.0 mi WSW 6.9 mph - N/A   Partly Cloudy
2:56 PM 35.6 °F 29.9 °F 28.4 °F 75% 29.87 in 10.0 mi WSW 6.9 mph - N/A   Partly Cloudy
3:16 PM 35.6 °F 29.2 °F 26.6 °F 70% 29.87 in 10.0 mi West 8.1 mph - N/A   Partly Cloudy
3:36 PM 35.6 °F 29.2 °F 26.6 °F 70% 29.88 in 10.0 mi West 8.1 mph - N/A   Partly Cloudy
3:56 PM 35.6 °F 29.9 °F 28.4 °F 75% 29.88 in 10.0 mi SW 6.9 mph - N/A   Scattered Clouds
4:16 PM 35.6 °F 32.8 °F 26.6 °F 70% 29.87 in 10.0 mi SW 3.5 mph - N/A   Scattered Clouds
4:36 PM 35.6 °F - 26.6 °F 70% 29.88 in 10.0 mi Calm Calm - N/A   Scattered Clouds
4:56 PM 33.8 °F - 26.6 °F 75% 29.88 in 10.0 mi Calm Calm - N/A   Scattered Clouds
5:16 PM 33.8 °F 30.8 °F 26.6 °F 75% 29.87 in 10.0 mi West 3.5 mph - N/A   Scattered Clouds
5:36 PM 33.8 °F - 24.8 °F 70% 29.87 in 10.0 mi Calm Calm - N/A   Scattered Clouds
5:56 PM 33.8 °F 29.6 °F 21.2 °F 60% 29.88 in 10.0 mi SE 4.6 mph - N/A   Mostly Cloudy
6:16 PM 32.0 °F 28.7 °F 21.2 °F 64% 29.88 in 10.0 mi East 3.5 mph - N/A   Mostly Cloudy
6:36 PM 32.0 °F - 19.4 °F 60% 29.87 in 10.0 mi Calm Calm - N/A   Mostly Cloudy
6:56 PM 30.2 °F - 19.4 °F 64% 29.86 in 10.0 mi Calm Calm - N/A   Partly Cloudy
7:16 PM 30.2 °F - 21.2 °F 69% 29.86 in 10.0 mi Calm Calm - N/A   Partly Cloudy
7:36 PM 26.6 °F - 19.4 °F 74% 29.86 in 10.0 mi Calm Calm - N/A   Partly Cloudy
7:56 PM 28.4 °F - 19.4 °F 69% 29.86 in 10.0 mi Calm Calm - N/A   Partly Cloudy
8:16 PM 24.8 °F - 19.4 °F 80% 29.86 in 10.0 mi Calm Calm - N/A   Partly Cloudy
8:36 PM 24.8 °F - 19.4 °F 80% 29.86 in 10.0 mi Calm Calm - N/A   Partly Cloudy
8:56 PM 26.6 °F - 17.6 °F 69% 29.86 in 10.0 mi Calm Calm - N/A   Partly Cloudy
9:16 PM 24.8 °F 20.5 °F 19.4 °F 80% 29.86 in 10.0 mi ESE 3.5 mph - N/A   Partly Cloudy
9:36 PM 21.2 °F - 15.8 °F 80% 29.86 in 10.0 mi Calm Calm - N/A   Partly Cloudy
9:56 PM 23.0 °F 17.0 °F 17.6 °F 80% 29.86 in 10.0 mi ESE 4.6 mph - N/A   Clear
10:16 PM 23.0 °F - 17.6 °F 80% 29.86 in 10.0 mi Calm Calm - N/A   Clear
10:36 PM 21.2 °F - 15.8 °F 80% 29.86 in 10.0 mi Calm Calm - N/A   Clear
10:56 PM 24.8 °F - 19.4 °F 80% 29.85 in 10.0 mi Calm Calm - N/A   Clear
11:16 PM 21.2 °F 13.6 °F 17.6 °F 86% 29.86 in 10.0 mi NE 5.8 mph - N/A   Clear
11:36 PM 21.2 °F - 19.4 °F 93% 29.86 in 10.0 mi Calm Calm - N/A   Clear
11:56 PM 19.4 °F - 17.6 °F 93% 29.86 in 10.0 mi Calm Calm - N/A   Clear